This is the latest recevied weather packets stored in our database for station/object SP3TOM-10. If no packets are shown the sender has not sent any weather packets the latest 10 day(s).
| Time | Temp. | Humidity | Pressure | Rain* | Wind** | Luminosity | Snow |
|---|---|---|---|---|---|---|---|
| 1777903322 | 28.89° C | 26% | 1000.7 hPa | - | - | - | - |
| 1777902422 | 28.33° C | 26% | 1000.8 hPa | - | - | - | - |
| 1777901522 | 28.33° C | 27% | 1000.8 hPa | - | - | - | - |
| 1777900622 | 28.33° C | 27% | 1000.9 hPa | - | - | - | - |
| 1777899721 | 28.33° C | 26% | 1001 hPa | - | - | - | - |
| 1777898821 | 28.33° C | 26% | 1001.1 hPa | - | - | - | - |
| 1777897921 | 28.89° C | 26% | 1001 hPa | - | - | - | - |
| 1777897021 | 28.89° C | 26% | 1001 hPa | - | - | - | - |
| 1777896121 | 28.89° C | 26% | 1001.1 hPa | - | - | - | - |
| 1777895220 | 28.89° C | 27% | 1001.1 hPa | - | - | - | - |
| 1777894320 | 28.89° C | 27% | 1001.2 hPa | - | - | - | - |
| 1777893420 | 28.33° C | 28% | 1001.3 hPa | - | - | - | - |
| 1777892520 | 27.78° C | 28% | 1001.3 hPa | - | - | - | - |
| 1777891620 | 27.22° C | 28% | 1001.6 hPa | - | - | - | - |
| 1777890720 | 26.67° C | 30% | 1001.5 hPa | - | - | - | - |
| 1777889819 | 25.56° C | 32% | 1001.8 hPa | - | - | - | - |
| 1777888919 | 25.56° C | 32% | 1001.8 hPa | - | - | - | - |
| 1777888019 | 25° C | 32% | 1001.9 hPa | - | - | - | - |
| 1777887119 | 25° C | 32% | 1002 hPa | - | - | - | - |
| 1777886219 | 25° C | 32% | 1001.9 hPa | - | - | - | - |
| 1777885319 | 25.56° C | 32% | 1002 hPa | - | - | - | - |
| 1777884418 | 24.44° C | 34% | 1001.9 hPa | - | - | - | - |
| 1777883518 | 23.89° C | 35% | 1001.8 hPa | - | - | - | - |
| 1777882618 | 23.33° C | 35% | 1001.5 hPa | - | - | - | - |
| 1777881718 | 22.78° C | 35% | 1001.5 hPa | - | - | - | - |
* Rain since midnight (hover to see other rain measurements)
** Current wind speed in m/s (hover to see current wind gust speed)